Flag for Germany Weather past 2 weeks in Heinsberg, North Rhine-Westphalia, Germany

Now
52 °F

Partly sunny.


Feels Like: 43 °F
Forecast: 40 / 47 °F
Wind: 39 mph from West

Location: Geilenkirchen Airport

Current Time: Mar 31, 2015 at 12:03:50 PM

Latest Report: Mar 31, 2015 at 10:50 AM


Visibility: N/A

Pressure: 29.50 "Hg

Humidity: 67%

Dew point: 41 °F

Location of HeinsbergLocation

Historic Weather in Heinsberg — Graph

°F

Heinsberg temperature yesterday

Maximum temperature yesterday: 50 °F (at 2:50 PM)
Minimum temperature yesterday: 45 °F (at 5:50 AM)
Average temperature yesterday: 47 °F

Past Weeks' High & Low Weather Summary

 TemperatureHumidityPressure
High63 °F (Mar 17, 3:50 PM)100% (Mar 17, 3:50 AM)30.39 "Hg (Mar 17, 3:50 AM)
Low28 °F (Mar 23, 6:50 AM)45% (Mar 17, 3:50 PM)29.36 "Hg (Mar 31, 4:50 AM)
Average45 °F80%30.00 "Hg
* Reported Mar 16 9:50 AM — Mar 31 10:50 AM, Heinsberg, Weather by CustomWeather, © 2015

Note: Actual official high and low records may vary slightly from our data, if they occured in-between our weather recording intervals... More about our weather records

Advertising

Heinsberg weather history for previous 24 hours

 ConditionsComfort  
Time TempWeatherWind HumidityBarometerVisibility
10:50 AM
Tue, Mar 31
52 °FPartly sunny.39 mph67%29.50 "HgN/A
9:50 AM48 °FSprinkles. Broken clouds.30 mph87%29.45 "Hg4 mi
8:50 AM52 °FBroken clouds.33 mph82%29.42 "HgN/A
7:50 AM52 °FPassing clouds.32 mph82%29.36 "Hg5 mi
6:50 AM50 °FRain. Partly cloudy.31 mph94%29.36 "Hg3 mi
5:50 AM52 °FRain. Passing clouds.31 mph94%29.36 "Hg5 mi
4:50 AM52 °FLight rain. Passing clouds.32 mph94%29.36 "HgN/A
3:50 AM54 °FLight rain. Passing clouds.35 mph82%29.39 "HgN/A
2:50 AM50 °FLight rain. Passing clouds.23 mph88%29.45 "HgN/A
1:50 AM48 °FLight rain. Passing clouds.20 mph82%29.53 "HgN/A
12:50 AM45 °FLight rain. Partly cloudy.10 mph87%29.62 "HgN/A
11:50 PM
Mon, Mar 30
45 °FLight rain. Passing clouds.9 mph81%29.71 "HgN/A
10:50 PM46 °FPassing clouds.9 mph66%29.77 "HgN/A
9:50 PM46 °FPassing clouds.7 mph57%29.80 "HgN/A
8:50 PM45 °FSunny.3 mph57%29.86 "Hg10 mi
7:50 PM46 °FSunny.15 mph53%29.86 "Hg10 mi
6:50 PM46 °FSunny.20 mph50%29.86 "Hg10 mi
5:50 PM50 °FSunny.22 mph50%29.86 "Hg10 mi
4:50 PM50 °FSunny.30 mph47%29.83 "Hg10 mi
3:50 PM50 °FBroken clouds.31 mph50%29.83 "HgN/A
2:50 PM50 °FBroken clouds.22 mph47%29.80 "HgN/A
1:50 PM46 °FBroken clouds.26 mph57%29.77 "HgN/A
12:50 PM46 °FPartly sunny.24 mph76%29.74 "HgN/A
Weather by CustomWeather, © 2015

See weather overviewHow to use our weather pages